Regional Weather Roundup
Issued by NWS

Home | Current Version | Previous Version | Text Only | Print | Product List | Glossary On
Versions: 1 2 3 4 5 6 7 8 9 10 11 12 13 14 15 16 17 18 19 20 21 22 23 24 25 26 27 28 29 30 31 32 33 34 35 36 37 38 39 40 41 42 43 44 45 46 47 48 49 50
000
ASUS44 KJAN 251310
RWRMS

MISSISSIPPI HOURLY WEATHER ROUNDUP
NATIONAL WEATHER SERVICE JACKSON MS
700 AM CST SUN JAN 25 2015

NOTE: "FAIR: INDICATES FEW OR NO CLOUDS BELOW 12,000 FEET WITH NO
SIGNIFICANT WEATHER AND/OR OBSTRUCTIONS TO VISIBILITY.

MSZ001>002-007>008-010>013-018>021-025>028-034>036-251400-
NORTHWEST MISSISSIPPI

CITY           SKY/WX    TMP DP  RH WIND       PRES   REMARKS
CLARKSDALE     FAIR      37  36  93 S9        29.84S WCI  31
CLEVELAND      FAIR      38  36  93 S12       29.86F WCI  30
GREENWOOD      CLEAR     40  35  83 SW10      29.90S WCI  33
GREENVILLE     CLEAR     39  34  82 SW10      29.88S WCI  32
GRENADA        FAIR      32  30  93 CALM      29.89S
OLIVE BRANCH   MOCLDY    36  36 100 S12       29.79F WCI  27
OXFORD         FAIR      37  32  81 S7        29.86F WCI  32
TUNICA         MOSUNNY   37  34  87 S12       29.81F WCI  30
$$

MSZ003>006-009-014>017-022>024-029>033-037>039-251400-
NORTHEAST MISSISSIPPI

CITY           SKY/WX    TMP DP  RH WIND       PRES   REMARKS
COLUMBUS AFB   CLEAR     33  30  90 S5        29.91R WCI  28
CORINTH        FAIR      34  32  93 S5        29.84R WCI  30
GOLDN TRIANGLE CLEAR     36  30  80 S9        29.91R WCI  29
STARKVILLE     FAIR      32  32 100 CALM      29.92R
TUPELO         PTCLDY    33  30  88 MISG      29.88R
$$

MSZ040-058-251400-
CENTRAL MISSISSIPPI

CITY           SKY/WX    TMP DP  RH WIND       PRES   REMARKS
JACKSON INTL   CLEAR     35  34  96 S7        29.95F WCI  29
JACKSON HAWKNS CLEAR     37  34  89 S5        29.95S WCI  33
MERIDIAN KEY   CLEAR     32  30  92 S7        29.97S WCI  26
MERIDIAN NAS   CLEAR     38  34  85 SW5       29.95F WCI  34
RAYMOND        FAIR      39  36  87 S5        29.96S
VICKSBURG      CLEAR     42  37  82 S5        29.95F
$$

MSZ059>079-251400-
SOUTH MISSISSIPPI

CITY           SKY/WX    TMP DP  RH WIND       PRES   REMARKS
BROOKHAVEN       N/A     37  37 100 S6        29.99S WCI  33
HATTIESBURG    CLEAR     34  32  92 CALM      30.01F
MCCOMB         MOCLDY    35  29  78 MISG      29.98F HAZE
NATCHEZ        CLEAR     41  36  81 SW3       29.98S
PINE BELT      CLEAR     34  30  86 CALM      29.99F
$$

MSZ080>082-251400-
COASTAL MISSISSIPPI

CITY           SKY/WX    TMP DP  RH WIND       PRES   REMARKS
BAY ST LOUIS   CLEAR     34  30  86 CALM      30.05  FOG
BILOXI         CLEAR     42  41  97 W5        30.05R
PASCAGOULA     CLEAR     34  33  96 CALM      30.05R FOG
GULFPORT       CLEAR     35  34  96 CALM      30.05R FOG
$$



USA.gov is the U.S. government's official web portal to all federal, state and local government web resources and services.